Regional Weather Roundup
Issued by NWS

Home | Current Version | Previous Version | Text Only | Print | Product List | Glossary On
Versions: 1 2 3 4 5 6 7 8 9 10 11 12 13 14 15 16 17 18 19 20 21 22 23 24 25 26 27 28 29 30 31 32 33 34 35 36 37 38 39 40 41 42 43 44 45 46 47 48 49 50
000
ASUS44 KBMX 301810
RWRAL

ALABAMA REGIONAL WEATHER ROUNDUP
NATIONAL WEATHER SERVICE BIRMINGHAM AL
100 PM CDT SUN AUG 30 2015

NOTE: "FAIR" INDICATES FEW OR NO CLOUDS BELOW 12,000 FEET
WITH NO SIGNIFICANT WEATHER AND/OR OBSTRUCTIONS TO VISIBILITY.

THE REMARK "TC" DENOTES TEMPERATURE IN DEGREES CELSIUS.

ALZ001>011-014-016>018-020-301900-
NORTH ALABAMA

CITY           SKY/WX    TMP DP  RH WIND       PRES   REMARKS
MUSCLE SHOALS  LGT RAIN  73  69  87 E8        30.15F
6HR MIN TEMP:  69; 6HR MAX TEMP:  73; 6HR PCP: TRACE;

HUNTSVILLE     CLOUDY    76  66  71 E5        30.14F
6HR MIN TEMP:  70; 6HR MAX TEMP:  76; 6HR PCP:  0.01;

DECATUR        CLOUDY    71  65  81 E3        30.15F
6HR MIN TEMP:  68; 6HR MAX TEMP:  74; 6HR PCP:  0.03;

HALEYVILLE     PTSUNNY   75  72  91 VRB6      30.17F
6HR MIN TEMP:  68; 6HR MAX TEMP:  75; 6HR PCP:  0.03;

GADSDEN        CLOUDY    75  61  60 NE12      30.11F
6HR MIN TEMP:  68; 6HR MAX TEMP:  77; 6HR PCP:  0.26;

$$

ALZ012-013-022-023-030>036-040>044-301900-
WEST CENTRAL ALABAMA

CITY           SKY/WX    TMP DP  RH WIND       PRES   REMARKS
TUSCALOOSA     LGT RAIN  74  70  87 CALM      30.12F
6HR MIN TEMP:  72; 6HR MAX TEMP:  74; 6HR PCP:  0.14;

$$

ALZ015-024>027-033>036-040>044-301900-
CENTRAL ALABAMA

CITY           SKY/WX    TMP DP  RH WIND       PRES   REMARKS
BIRMINGHAM     CLOUDY    73  68  84 NE9       30.13S
6HR MIN TEMP:  69; 6HR MAX TEMP:  74; 6HR PCP: TRACE;

MONTGOMERY     PTSUNNY   87  67  51 NW10      30.07F HX  90
6HR MIN TEMP:  73; 6HR MAX TEMP:  87;

SHELBY CO ARPT CLOUDY    76  70  82 NW3       30.10F
6HR MIN TEMP:  70; 6HR MAX TEMP:  77; 6HR PCP: TRACE;

MAXWELL AFB    PTSUNNY   83  70  64 VRB5      30.07F
6HR MIN TEMP:  72; 6HR MAX TEMP:  84;

GREENVILLE     FAIR      84  69  60 CALM      30.08F
6HR MIN TEMP:  70; 6HR MAX TEMP:  84;

$$

ALZ019-021-028-029-037-038-045>048-301900-
EAST CENTRAL ALABAMA

CITY           SKY/WX    TMP DP  RH WIND       PRES   REMARKS
ANNISTON       CLOUDY    74  66  76 NE8       30.11F
6HR MIN TEMP:  70; 6HR MAX TEMP:  75; 6HR PCP:  0.02;

ALEXANDER CITY RAIN      75  73  92 SE3       30.09F
6HR MIN TEMP:  74; 6HR MAX TEMP:  77; 6HR PCP:  0.04;

AUBURN         PTSUNNY   81  68  64 SW5       30.09F
6HR MIN TEMP:  70; 6HR MAX TEMP:  81; 6HR PCP:  0.01;

$$

ALZ051>064-301900-
SOUTHWEST ALABAMA

CITY           SKY/WX    TMP DP  RH WIND       PRES   REMARKS
MOBILE         PTSUNNY   87  69  54 VRB3      30.06F HX  91
6HR MIN TEMP:  72; 6HR MAX TEMP:  88;

BROOKLEY FIELD MOSUNNY   87  70  56 E8        30.06F HX  92
6HR MIN TEMP:  74; 6HR MAX TEMP:  88;

EVERGREEN      LGT RAIN  86  69  56 NE5       30.07F HX  90
6HR MIN TEMP:  67; 6HR MAX TEMP:  88; 6HR PCP: TRACE;

$$

ALZ049-050-065>069-301900-
SOUTHEAST ALABAMA

CITY           SKY/WX    TMP DP  RH WIND       PRES   REMARKS
DOTHAN         MOSUNNY   86  70  58 N7        30.11F HX  90
6HR MIN TEMP:  68; 6HR MAX TEMP:  86;

OZARK            N/A     85  69  58 NW8       30.06F
6HR MIN TEMP:  68; 6HR MAX TEMP:  87;

TROY           MOSUNNY   84  68  58 VRB3      30.09F
6HR MIN TEMP:  68; 6HR MAX TEMP:  85;

EUFAULA        PTSUNNY   86  70  58 NW6       30.06F HX  90
6HR MIN TEMP:  73; 6HR MAX TEMP:  87;

$$



USA.gov is the U.S. government's official web portal to all federal, state and local government web resources and services.